Weather History for Dillon, MT

Change the Weather History Date:

Thursday, May 2, 2013

  Actual Average Record
Temperature  
Mean Temperature 41 °F 46 °F  
Max Temperature 64 °F 60 °F 85 °F (1947)
Min Temperature 18 °F 33 °F 14 °F (1954)
Degree Days  
Heating Degree Days 24    
Month to date heating degree days 55  
Since 1 July heating degree days 7150  
Cooling Degree Days 0    
Month to date cooling degree days 0  
Year to date cooling degree days 0  
Moisture  
Dew Point 6 °F    
Average Humidity 35    
Maximum Humidity 62    
Minimum Humidity 8    
Precipitation  
Precipitation 0.00 in 0.04 in 0.59 in (1959)
Month to date precipitation 0.00 0.08  
Year to date precipitation 0.54 2.20  
Snow  
Snow 0.00 in - - ()
Snow Depth 0.00 in    
Sea Level Pressure  
Sea Level Pressure 30.48 in    
Wind  
Wind Speed 8 mph (SSW)    
Max Wind Speed 21 mph    
Max Gust Speed 24 mph    
Visibility 10 miles    
Events      
T = Trace of Precipitation, MM = Missing Value Source: NWS Daily Summary

Daily Weather History Graph

Daily Weather History Graph

Search for Another Location

Airport:

Trip Planner

Search our weather history database for the weather conditions in past years. The results will help you decide how hot, cold, wet, or windy it might be!

Date:

Astronomy

May. 02, 2013 Rise Set
Actual Time 6:16 AM MDT 8:38 PM MDT
Civil Twilight 5:44 AM MDT 9:10 PM MDT
Nautical Twilight 5:03 AM MDT 9:51 PM MDT
Astronomical Twilight 4:17 AM MDT 10:38 PM MDT
Moon 2:27 AM MDT (5/2) 1:12 PM MDT (5/2)
Length of Visible Light 15h 26m
Length of Day
14h 21m
Waning Gibbous, 47% of the Moon is Illuminated
May 2
Waning Gibbous
May 9
New
May 17
First Quarter
May 24
Full
May 31
Last Quarter

Hourly Weather History & Observations

Time (MDT) Temp. Windchill Dew Point Humidity Pressure Visibility Wind Dir Wind Speed Gust Speed Precip Events Conditions
12:53 AM 30.9 °F 25.2 °F 8.1 °F 38% 30.62 in 10.0 mi South 5.8 mph - N/A   Clear
1:53 AM 30.9 °F 27.5 °F 9.0 °F 40% 30.61 in 10.0 mi SSW 3.5 mph - N/A   Clear
2:53 AM 23.0 °F 17.0 °F 9.0 °F 55% 30.66 in 10.0 mi SSE 4.6 mph - N/A   Clear
3:53 AM 21.9 °F 13.4 °F 7.0 °F 53% 30.66 in 10.0 mi South 6.9 mph - N/A   Clear
4:53 AM 21.0 °F 16.2 °F 8.1 °F 57% 30.68 in 10.0 mi SSW 3.5 mph - N/A   Clear
5:53 AM 19.9 °F 8.6 °F 8.1 °F 60% 30.68 in 10.0 mi SSW 10.4 mph - N/A   Clear
6:53 AM 21.0 °F 10.6 °F 8.1 °F 57% 30.68 in 10.0 mi South 9.2 mph - N/A   Clear
7:53 AM 28.0 °F 22.8 °F 10.0 °F 47% 30.66 in 10.0 mi SW 4.6 mph - N/A   Clear
8:53 AM 36.0 °F 29.6 °F 10.9 °F 36% 30.63 in 10.0 mi SW 8.1 mph - N/A   Clear
9:53 AM 41.0 °F - 12.0 °F 31% 30.60 in 10.0 mi Calm Calm - N/A   Clear
10:53 AM 46.9 °F - 9.0 °F 21% 30.56 in 10.0 mi South 8.1 mph - N/A   Clear
11:53 AM 51.1 °F - 3.9 °F 15% 30.52 in 10.0 mi Variable 3.5 mph - N/A   Clear
12:53 PM 55.0 °F - -0.9 °F 10% 30.48 in 10.0 mi SSW 6.9 mph - N/A   Clear
1:53 PM 57.0 °F - -2.0 °F 9% 30.43 in 10.0 mi South 5.8 mph - N/A   Clear
2:53 PM 60.1 °F - -2.0 °F 8% 30.41 in 10.0 mi SSW 6.9 mph 17.3 mph N/A   Clear
3:53 PM 62.1 °F - -0.9 °F 8% 30.37 in 10.0 mi SW 11.5 mph - N/A   Clear
4:53 PM 63.0 °F - -0.0 °F 8% 30.35 in 10.0 mi South 9.2 mph - N/A   Clear
5:53 PM 64.0 °F - 3.0 °F 9% 30.33 in 10.0 mi West 10.4 mph 18.4 mph N/A   Clear
6:53 PM 62.1 °F - 3.0 °F 9% 30.32 in 10.0 mi West 18.4 mph 23.0 mph N/A   Clear
7:53 PM 57.9 °F - 3.9 °F 11% 30.30 in 10.0 mi West 13.8 mph - N/A   Clear
8:53 PM 51.1 °F - 7.0 °F 17% 30.29 in 10.0 mi West 8.1 mph - N/A   Clear
9:53 PM 50.0 °F - 7.0 °F 18% 30.27 in 10.0 mi Calm Calm - N/A   Clear
10:53 PM 51.1 °F - 6.1 °F 16% 30.25 in 10.0 mi South 9.2 mph - N/A   Clear
11:53 PM 44.1 °F 41.5 °F 8.1 °F 23% 30.25 in 10.0 mi SSW 4.6 mph - N/A   Mostly Cloudy